Location: Newark
(13.6797°N, 8.5297°E)
Time: 04:23:21
(UTC+00:00)

A-11 Canister half - Pass Details

Date: 18 January 2020
Orbit: 1517 x 1683 km, 47.2° (Epoch: 19 February)

Event Time Altitude Azimuth Distance (km) Brightness Sun altitude
Rises 07:43:07 0° 328° (NNW) 4,682 11.0 23.3°
Reaches altitude 10° 07:46:24 10° 336° (NNW) 3,716 10.6 24.0°
Maximum altitude 07:55:08 41° 44° (NE) 2,139 10.2 25.8°
Drops below altitude 10° 08:04:06 10° 111° (ESE) 3,833 12.7 27.6°
Sets 08:07:31 0° 118° (ESE) 4,843 12.9 28.3°
